sat.trackr.live / text

‹ back to catalog

STARLINK-30213

NORAD 57504 · 2023-113K

PAYLOAD ACTIVE UNKNOWN

§ Identity

Operator
Country
US
Launch date
2023-08-07
Launch site
AFETR
Launch vehicle
Mass (kg)
RCS (m²)

Purposes: comms

External: N2YO · Heavens-Above · Gunter

§ Orbital elements

Epoch: 2026-05-25T03:29:44.854656Z

Period
94.27 min
Inclination
42.9985°
Eccentricity
0.0001028
Mean motion
15.27577067 rev/d
Perigee alt
482.4 km
Apogee alt
483.8 km
Semi-major
6,861.2 km
B*
5.0129e-5
RAAN
304.6603°
Arg perigee
276.5081°
Mean anomaly
83.5653°
Rev number
15,536

§ Raw data

STARLINK-302131 57504U 23113K   26145.14565804  .00001118  00000+0  50129-4 0  99932 57504  42.9985 304.6603 0001028 276.5081  83.5653 15.27577067155369

JSON: /api/v1/satellites/57504 · /tle

For live sub-satellite position, see the globe view (requires WebGL).

§ Visibility from observer

Set your observer location to see the next 7 days of passes ≥ 10°. The values pass through the URL so the page stays shareable.

No JS? Fill the form by hand. The geolocation button needs JavaScript.